Skip Page Navigation
NASA JPL Caltech
NASA Logo - Jet Propulsion Laboratory + View the NASA Portal
+ Center for Near-Earth Object Studies
JPL Home Earth Solar System Stars & Galaxies Technology
JPL Solar System Dynamics
BODIES ORBITS EPHEMERIDES TOOLS PHYSICAL DATA DISCOVERY FAQ SITE MAP
JPL Small-Body Database Browser
Search: [ help ]  
385604 (2005 EV205)
Classification: Main-belt Asteroid          SPK-ID: 2385604
Ephemeris | Orbit Diagram | Orbital Elements | Mission Design | Physical Parameters | Discovery Circumstances | Close-Approach Data ]

[ show orbit diagram ]
Orbital Elements at Epoch 2459396.5 (2021-Jul-01.0) TDB
Reference: JPL 15 (heliocentric ecliptic J2000)
 Element Value Uncertainty (1-sigma)   Units 
e .1247020332561012 5.56e-08  
a 2.711263835717498 2.5533e-08 au
q 2.37316372270979 1.3878e-07 au
i 25.20072613412698 8.9245e-06 deg
node 151.7063068730781 1.0013e-05 deg
peri 79.66433609520342 3.856e-05 deg
M 161.0890927319475 3.5061e-05 deg
tp 2458666.841353050361
(2019-Jul-02.34135305)
0.00016166 TDB
period 1630.632517987825
4.46
2.3034e-05
6.306e-08
d
yr
n .2207732251312113 3.1187e-09 deg/d
Q 3.049363948725205 2.8717e-08 au
  Orbit Determination Parameters
   # obs. used (total)      208  
   data-arc span      6694 days (18.33 yr)  
   first obs. used      2002-07-12  
   last obs. used      2020-11-08  
   planetary ephem.      DE441  
   SB-pert. ephem.      SB441-N16  
   condition code      0  
   norm. resid. RMS      .51729  
   source      ORB  
   producer      Otto Matic  
   solution date      2021-Apr-14 11:05:58  

Additional Information
 Earth MOID = 1.4978 au 
 Jupiter MOID = 2.17151 au 
 T_jup = 3.215 
[ show covariance matrix ]

Ephemeris | Orbit Diagram | Orbital Elements | Mission Design | Physical Parameters | Discovery Circumstances | Close-Approach Data ]

Physical Parameter Table
Parameter Symbol Value Units Sigma Reference Notes
absolute magnitude H 16.50   n/a E2021B25  

385604 (2005 EV205)          Discovered 2005-Mar-13 by Mt. Lemmon Survey at Mount Lemmon
Reference: Last Updated: 2014-02-19

[ hide close-approach data ]
Close-Approach Data   ...sorted by Date/Time (TDB)
Date/Time (TDB) Time Uncertainty
(days_HH:MM)
Body Nominal Distance (au) Minimum Distance (au) Maximum Distance (au) V-relative (km/s) V-infinity (km/s) JD (TDB) Time Uncertainty (minutes) Semi-major axis (km) Semi-minor axis (km) range-LOV angle (deg) N-sigma BP Orbit Ref. Reference Modified
1922-Jan-16 20:16 00:04 Juno 0.00981781307171823 0.00979952073323644 0.00983614858631072 8.21424787304975 8.21424772219346 2423071.344502024 4.08223207683766 1389.95613521632 184.306515363826 -49.5268556861328 6098.68041724546 T 15 CATAB v2.0f-lin.ifort 2021-Apr-14 11:05:59 2021-Apr-14 11:06
2105-Apr-04 05:22 00:04 Juno 0.0208590405221664 0.0208343922772514 0.0208837044274789 8.28241012893969 8.28241005851987 2489988.723923141 3.54361617730123 1530.18770049615 183.621067356662 36.8614422319565 10321.203351926 T 15 CATAB v2.0f-lin.ifort 2021-Apr-14 11:05:59 2021-Apr-14 11:06
Ephemeris | Orbit Diagram | Orbital Elements | Mission Design | Physical Parameters | Discovery Circumstances | Close-Approach Data ]
ABOUT SSD CREDITS/AWARDS PRIVACY/COPYRIGHT GLOSSARY LINKS
FirstGov 2021-Jul-30 20:34 UT
(server date/time)  
NASA Home Page
Site Manager:   Ryan S. Park
Webmaster  Alan B. Chamberlin